SVJC/LSP METAR and TAF weather

Enter ICAO airport designator
Station Type Date Time Source
SVJC METAR 2020/10/02 10:00 UTC NOAA

SVJC 021000Z NI CHECK TEXT NEW ENDING ADDED KATLYTAA


Station Type Date Time Source
SVJC Decoded METAR 2020/10/02 10:00 UTC NOAA

Paraguana / Josefa, Venezuela (SVJC) 11-47N 070-09W
Oct 02, 2020 - 06:00 AM EDT / 2020.10.02 1000 UTC
ob: SVJC 021000Z NI CHECK TEXT NEW ENDING ADDED KATLYTAA
cycle: 10

Station Type Date Time Source
SVJC TAF 2021/08/05 06:03 UTC NOAA

TAF TAF SVJC 050400Z 0506/0606 36005KT 9999 FEW013 TX33/0519Z TN24/0508Z
TEMPO 0506/0510 20005KT 9000 DZ BKN016

Example: see airport list